| time (UTC) | temp F | wind direction | speed MPH | gust MPH | rain 1hr in | rain 24hr in | rain mn in | humidity % | barometer mb |
| 20260509235523 | 56 | 341 | 3.0 | 6.0 | 0.00 | 0.14 | 0.01 | 99 | 1016.4 |
| 20260509234523 | 56 | 355 | 4.0 | 8.0 | 0.00 | 0.14 | 0.01 | 99 | 1016.4 |
| 20260509233523 | 56 | 341 | 3.0 | 7.0 | 0.00 | 0.14 | 0.01 | 99 | 1016.5 |
| 20260509232524 | 56 | 356 | 2.0 | 5.0 | 0.00 | 0.14 | 0.01 | 99 | 1016.6 |
| 20260509231540 | 56 | 341 | 2.0 | 4.0 | 0.00 | 0.14 | 0.01 | 99 | 1016.7 |
| 20260509230524 | 56 | 344 | 2.0 | 3.0 | 0.00 | 0.14 | 0.01 | 99 | 1016.8 |
| 20260509225523 | 56 | 333 | 2.0 | 5.0 | 0.00 | 0.14 | 0.01 | 99 | 1016.8 |
| 20260509224523 | 56 | 339 | 3.0 | 8.0 | 0.00 | 0.14 | 0.01 | 99 | 1016.9 |
| 20260509223523 | 56 | 2 | 2.0 | 6.0 | 0.00 | 0.14 | 0.01 | 99 | 1016.9 |
| 20260509222524 | 56 | 336 | 3.0 | 7.0 | 0.01 | 0.14 | 0.01 | 99 | 1017.0 |
| 20260509221523 | 56 | 354 | 2.0 | 8.0 | 0.01 | 0.14 | 0.01 | 99 | 1017.1 |
| 20260509220603 | 56 | 11 | 2.0 | 5.0 | 0.01 | 0.14 | 0.01 | 98 | 1017.1 |
| 20260509215523 | 56 | 350 | 3.0 | 6.0 | 0.01 | 0.14 | 0.01 | 98 | 1017.2 |
| 20260509214522 | 57 | 341 | 2.0 | 7.0 | 0.01 | 0.14 | 0.01 | 98 | 1017.2 |
| 20260509213543 | 57 | 342 | 2.0 | 4.0 | 0.01 | 0.14 | 0.01 | 98 | 1017.3 |
| 20260509212523 | 57 | 339 | 2.0 | 5.0 | 0.00 | 0.13 | 0.00 | 98 | 1017.2 |
| 20260509211558 | 57 | 339 | 2.0 | 4.0 | 0.00 | 0.13 | 0.00 | 98 | 1017.2 |
| 20260509210523 | 57 | 328 | 2.0 | 6.0 | 0.00 | 0.13 | 0.00 | 98 | 1017.3 |
| 20260509205523 | 57 | 336 | 4.0 | 7.0 | 0.00 | 0.13 | 0.13 | 97 | 1017.2 |
| 20260509204523 | 57 | 337 | 3.0 | 7.0 | 0.00 | 0.13 | 0.13 | 97 | 1017.3 |
| 20260509203522 | 57 | 335 | 3.0 | 8.0 | 0.02 | 0.13 | 0.13 | 97 | 1017.3 |
| 20260509202542 | 57 | 328 | 2.0 | 5.0 | 0.06 | 0.13 | 0.13 | 97 | 1017.2 |
| 20260509201521 | 57 | 334 | 2.0 | 5.0 | 0.08 | 0.13 | 0.13 | 97 | 1017.3 |
| 20260509200521 | 57 | 352 | 3.0 | 6.0 | 0.10 | 0.13 | 0.13 | 97 | 1017.2 |
| 20260509195522 | 57 | 343 | 2.0 | 4.0 | 0.11 | 0.13 | 0.13 | 96 | 1017.2 |
| 20260509194522 | 58 | 337 | 4.0 | 10.0 | 0.12 | 0.13 | 0.13 | 96 | 1017.1 |
| 20260509193521 | 58 | 331 | 5.0 | 9.0 | 0.10 | 0.11 | 0.11 | 96 | 1017.1 |
| 20260509192522 | 58 | 328 | 3.0 | 6.0 | 0.06 | 0.07 | 0.07 | 96 | 1017.1 |
| 20260509191541 | 58 | 332 | 2.0 | 5.0 | 0.04 | 0.05 | 0.05 | 95 | 1017.2 |
| 20260509190521 | 58 | 347 | 2.0 | 6.0 | 0.02 | 0.03 | 0.03 | 95 | 1017.2 |
| 20260509185541 | 58 | 351 | 2.0 | 2.0 | 0.01 | 0.02 | 0.02 | 94 | 1017.1 |
| 20260509184520 | 59 | 338 | 2.0 | 4.0 | 0.00 | 0.01 | 0.01 | 94 | 1017.0 |
| 20260509183521 | 59 | 328 | 2.0 | 3.0 | 0.00 | 0.01 | 0.01 | 94 | 1016.9 |
| 20260509182521 | 59 | 332 | 2.0 | 4.0 | 0.00 | 0.01 | 0.01 | 94 | 1016.8 |
| 20260509181540 | 59 | 333 | 2.0 | 6.0 | 0.00 | 0.01 | 0.01 | 94 | 1016.8 |
| 20260509180521 | 60 | 333 | 2.0 | 2.0 | 0.00 | 0.01 | 0.01 | 93 | 1016.7 |
| 20260509175541 | 60 | 337 | 2.0 | 3.0 | 0.00 | 0.01 | 0.01 | 93 | 1016.6 |
| 20260509174520 | 60 | 330 | 2.0 | 3.0 | 0.00 | 0.01 | 0.01 | 93 | 1016.4 |
| 20260509173521 | 61 | 345 | 2.0 | 3.0 | 0.00 | 0.01 | 0.01 | 92 | 1016.4 |
| 20260509172520 | 62 | 343 | 2.0 | 2.0 | 0.00 | 0.01 | 0.01 | 91 | 1016.4 |
| 20260509171520 | 63 | 1 | 2.0 | 4.0 | 0.00 | 0.01 | 0.01 | 91 | 1016.3 |
| 20260509170541 | 63 | 355 | 2.0 | 3.0 | 0.00 | 0.01 | 0.01 | 90 | 1016.2 |
| 20260509165520 | 63 | 347 | 1.0 | 2.0 | 0.00 | 0.01 | 0.01 | 88 | 1016.2 |
| 20260509164520 | 63 | 346 | 1.0 | 1.0 | 0.00 | 0.01 | 0.01 | 87 | 1016.1 |
| 20260509163519 | 64 | 343 | 1.0 | 4.0 | 0.00 | 0.01 | 0.01 | 86 | 1016.1 |
| 20260509162519 | 64 | 348 | 1.0 | 1.0 | 0.00 | 0.01 | 0.01 | 86 | 1016.1 |
| 20260509161519 | 64 | 345 | 1.0 | 2.0 | 0.00 | 0.01 | 0.01 | 86 | 1016.1 |
| 20260509160539 | 64 | 8 | 1.0 | 1.0 | 0.00 | 0.01 | 0.01 | 86 | 1016.1 |
| 20260509155519 | 64 | 359 | 1.0 | 1.0 | 0.00 | 0.01 | 0.01 | 86 | 1016.1 |
| 20260509154519 | 64 | 29 | 1.0 | 2.0 | 0.00 | 0.01 | 0.01 | 85 | 1016.0 |
| 20260509153519 | 64 | 25 | 1.0 | 2.0 | 0.00 | 0.01 | 0.01 | 85 | 1016.1 |
| 20260509152539 | 64 | 22 | 1.0 | 2.0 | 0.00 | 0.01 | 0.01 | 85 | 1016.1 |
| 20260509151519 | 64 | 27 | 1.0 | 2.0 | 0.00 | 0.01 | 0.01 | 84 | 1016.1 |
| 20260509150519 | 64 | 12 | 1.0 | 2.0 | 0.00 | 0.01 | 0.01 | 83 | 1016.2 |
| 20260509145519 | 64 | 17 | 1.0 | 2.0 | 0.00 | 0.01 | 0.01 | 83 | 1016.2 |
| 20260509144519 | 64 | 30 | 1.0 | 2.0 | 0.00 | 0.01 | 0.01 | 83 | 1016.3 |
| 20260509143519 | 64 | 38 | 2.0 | 3.0 | 0.00 | 0.01 | 0.01 | 83 | 1016.3 |
| 20260509142518 | 65 | 40 | 2.0 | 4.0 | 0.00 | 0.01 | 0.01 | 81 | 1016.3 |
| 20260509141519 | 65 | 49 | 1.0 | 1.0 | 0.00 | 0.01 | 0.01 | 82 | 1016.4 |
| 20260509140541 | 65 | 31 | 1.0 | 1.0 | 0.00 | 0.01 | 0.01 | 82 | 1016.4 |
| 20260509135518 | 65 | 48 | 1.0 | 2.0 | 0.00 | 0.02 | 0.01 | 82 | 1016.4 |
| 20260509134519 | 65 | 38 | 1.0 | 2.0 | 0.00 | 0.03 | 0.01 | 83 | 1016.5 |
| 20260509133518 | 64 | 41 | 1.0 | 3.0 | 0.00 | 0.09 | 0.01 | 83 | 1016.5 |
| 20260509132518 | 64 | 57 | 1.0 | 1.0 | 0.00 | 0.22 | 0.01 | 84 | 1016.6 |
| 20260509131518 | 65 | 47 | 1.0 | 2.0 | 0.00 | 0.44 | 0.01 | 83 | 1016.7 |
| 20260509130518 | 65 | 46 | 1.0 | 3.0 | 0.00 | 0.44 | 0.01 | 82 | 1016.8 |
| 20260509125518 | 65 | 54 | 1.0 | 3.0 | 0.00 | 0.44 | 0.01 | 83 | 1017.0 |
| 20260509124537 | 65 | 58 | 1.0 | 2.0 | 0.00 | 0.44 | 0.01 | 82 | 1017.0 |
| 20260509123518 | 65 | 66 | 2.0 | 4.0 | 0.00 | 0.44 | 0.01 | 83 | 1017.1 |
| 20260509122518 | 65 | 54 | 2.0 | 4.0 | 0.00 | 0.44 | 0.01 | 82 | 1017.1 |
| 20260509121517 | 66 | 54 | 1.0 | 1.0 | 0.00 | 0.44 | 0.01 | 83 | 1017.1 |
| 20260509120518 | 66 | 49 | 1.0 | 3.0 | 0.00 | 0.44 | 0.01 | 81 | 1017.1 |
| 20260509115540 | 66 | 63 | 1.0 | 5.0 | 0.00 | 0.44 | 0.01 | 81 | 1017.1 |
| 20260509114517 | 67 | 56 | 1.0 | 4.0 | 0.00 | 0.44 | 0.01 | 81 | 1017.2 |
| 20260509113518 | 66 | 84 | 1.0 | 2.0 | 0.00 | 0.44 | 0.01 | 82 | 1017.3 |
| 20260509112517 | 65 | 64 | 2.0 | 4.0 | 0.00 | 0.44 | 0.01 | 83 | 1017.2 |
| 20260509111517 | 64 | 79 | 1.0 | 2.0 | 0.00 | 0.44 | 0.01 | 87 | 1017.3 |
| 20260509110517 | 64 | 86 | 2.0 | 4.0 | 0.00 | 0.44 | 0.01 | 85 | 1017.4 |
| 20260509105516 | 64 | 69 | 2.0 | 4.0 | 0.00 | 0.44 | 0.01 | 85 | 1017.4 |
| 20260509104519 | 64 | 82 | 2.0 | 3.0 | 0.00 | 0.44 | 0.01 | 85 | 1017.4 |
| 20260509103519 | 64 | 69 | 1.0 | 2.0 | 0.00 | 0.44 | 0.01 | 85 | 1017.4 |
| 20260509102519 | 64 | 54 | 1.0 | 2.0 | 0.00 | 0.44 | 0.01 | 86 | 1017.4 |
| 20260509101517 | 64 | 51 | 1.0 | 2.0 | 0.00 | 0.44 | 0.01 | 85 | 1017.4 |
| 20260509100519 | 64 | 50 | 2.0 | 3.0 | 0.00 | 0.44 | 0.01 | 85 | 1017.4 |
| 20260509095516 | 64 | 52 | 1.0 | 3.0 | 0.00 | 0.44 | 0.01 | 86 | 1017.5 |
| 20260509094537 | 64 | 40 | 1.0 | 3.0 | 0.00 | 0.44 | 0.01 | 86 | 1017.6 |
| 20260509093517 | 63 | 59 | 1.0 | 2.0 | 0.00 | 0.44 | 0.01 | 87 | 1017.6 |
| 20260509092517 | 63 | 55 | 1.0 | 2.0 | 0.00 | 0.44 | 0.01 | 87 | 1017.6 |
| 20260509091516 | 63 | 50 | 2.0 | 4.0 | 0.00 | 0.44 | 0.01 | 87 | 1017.6 |
| 20260509090524 | 63 | 40 | 2.0 | 4.0 | 0.00 | 0.44 | 0.01 | 88 | 1017.7 |
| 20260509085524 | 63 | 42 | 2.0 | 3.0 | 0.00 | 0.44 | 0.01 | 88 | 1017.5 |
| 20260509084524 | 63 | 48 | 1.0 | 2.0 | 0.00 | 0.44 | 0.01 | 92 | 1017.7 |
| 20260509083524 | 61 | 32 | 1.0 | 2.0 | 0.00 | 0.44 | 0.01 | 93 | 1017.8 |
| 20260509082525 | 61 | 46 | 1.0 | 3.0 | 0.00 | 0.44 | 0.01 | 94 | 1017.8 |
| 20260509081524 | 60 | 53 | 1.0 | 3.0 | 0.00 | 0.44 | 0.01 | 96 | 1017.8 |
| 20260509080522 | 60 | 57 | 1.0 | 2.0 | 0.00 | 0.44 | 0.01 | 98 | 1017.8 |
| 20260509075524 | 60 | 51 | 1.0 | 4.0 | 0.00 | 0.44 | 0.01 | 99 | 1017.9 |
| 20260509074603 | 59 | 47 | 1.0 | 3.0 | 0.00 | 0.44 | 0.01 | 100 | 1017.9 |
| 20260509073525 | 59 | 39 | 2.0 | 4.0 | 0.00 | 0.44 | 0.01 | 100 | 1017.8 |
| 20260509072528 | 59 | 15 | 1.0 | 2.0 | 0.00 | 0.44 | 0.01 | 100 | 1017.8 |
| 20260509071525 | 59 | 25 | 1.0 | 2.0 | 0.00 | 0.44 | 0.01 | 100 | 1017.8 |
| 20260509070525 | 58 | 353 | 1.0 | 2.0 | 0.00 | 0.44 | 0.01 | 100 | 1017.9 |
| 20260509065525 | 58 | 12 | 1.0 | 2.0 | 0.00 | 0.44 | 0.01 | 100 | 1017.8 |
| 20260509064528 | 58 | 358 | 2.0 | 2.0 | 0.00 | 0.44 | 0.01 | 100 | 1017.8 |
| 20260509063528 | 57 | 6 | 2.0 | 3.0 | 0.00 | 0.44 | 0.01 | 100 | 1017.7 |
| 20260509062526 | 57 | 4 | 2.0 | 2.0 | 0.00 | 0.44 | 0.01 | 100 | 1017.7 |
| 20260509061527 | 57 | 355 | 2.0 | 4.0 | 0.00 | 0.44 | 0.01 | 100 | 1017.7 |
| 20260509060525 | 57 | 359 | 1.0 | 3.0 | 0.00 | 0.44 | 0.01 | 100 | 1017.7 |
| 20260509055525 | 56 | 359 | 2.0 | 3.0 | 0.00 | 0.44 | 0.01 | 100 | 1017.7 |
| 20260509054524 | 56 | 359 | 2.0 | 2.0 | 0.00 | 0.44 | 0.01 | 100 | 1017.6 |
| 20260509053524 | 56 | 358 | 2.0 | 3.0 | 0.00 | 0.44 | 0.01 | 100 | 1017.6 |
| 20260509052525 | 57 | 350 | 2.0 | 5.0 | 0.00 | 0.44 | 0.01 | 100 | 1017.6 |
| 20260509051525 | 56 | 359 | 2.0 | 2.0 | 0.00 | 0.44 | 0.01 | 100 | 1017.6 |
| 20260509050524 | 56 | 1 | 2.0 | 3.0 | 0.00 | 0.44 | 0.01 | 100 | 1017.6 |
| 20260509045524 | 57 | 15 | 2.0 | 2.0 | 0.00 | 0.44 | 0.01 | 100 | 1017.6 |
| 20260509044525 | 56 | 358 | 2.0 | 2.0 | 0.00 | 0.44 | 0.01 | 100 | 1017.7 |
| 20260509043524 | 56 | 347 | 1.0 | 2.0 | 0.00 | 0.44 | 0.01 | 100 | 1017.7 |
| 20260509042524 | 56 | 358 | 1.0 | 2.0 | 0.00 | 0.44 | 0.01 | 100 | 1017.6 |
| 20260509041524 | 56 | 340 | 2.0 | 2.0 | 0.00 | 0.44 | 0.01 | 100 | 1017.6 |
| 20260509040525 | 56 | 333 | 2.0 | 2.0 | 0.01 | 0.44 | 0.01 | 100 | 1017.5 |
| 20260509035523 | 56 | 312 | 1.0 | 2.0 | 0.01 | 0.44 | 0.01 | 100 | 1017.5 |
| 20260509034525 | 56 | 319 | 1.0 | 2.0 | 0.01 | 0.44 | 0.01 | 100 | 1017.5 |
| 20260509033547 | 56 | 333 | 1.0 | 2.0 | 0.01 | 0.44 | 0.01 | 100 | 1017.4 |
| 20260509032525 | 57 | 320 | 1.0 | 2.0 | 0.01 | 0.44 | 0.01 | 100 | 1017.3 |
| 20260509031531 | 57 | 332 | 1.0 | 2.0 | 0.01 | 0.44 | 0.01 | 100 | 1017.2 |
| 20260509030525 | 57 | 306 | 0.0 | 1.0 | 0.00 | 0.43 | 0.00 | 100 | 1017.3 |
| 20260509025524 | 57 | 0.0 | 0.0 | 0.00 | 0.43 | 0.00 | 100 | 1017.2 | |
| 20260509024546 | 57 | 341 | 0.0 | 1.0 | 0.00 | 0.43 | 0.00 | 100 | 1017.1 |
| 20260509023525 | 57 | 317 | 0.0 | 1.0 | 0.00 | 0.43 | 0.00 | 100 | 1017.1 |
| 20260509022525 | 57 | 0.0 | 0.0 | 0.00 | 0.43 | 0.00 | 100 | 1017.2 | |
| 20260509021526 | 57 | 0.0 | 0.0 | 0.00 | 0.43 | 0.00 | 100 | 1017.2 | |
| 20260509020527 | 57 | 318 | 0.0 | 1.0 | 0.00 | 0.43 | 0.00 | 99 | 1017.1 |
| 20260509015606 | 57 | 30 | 0.0 | 1.0 | 0.00 | 0.43 | 0.00 | 99 | 1017.1 |
| 20260509014528 | 57 | 36 | 0.0 | 1.0 | 0.00 | 0.43 | 0.00 | 99 | 1017.1 |
| 20260509013524 | 57 | 35 | 0.0 | 1.0 | 0.00 | 0.43 | 0.00 | 99 | 1017.1 |
| 20260509012525 | 57 | 330 | 0.0 | 1.0 | 0.00 | 0.43 | 0.00 | 99 | 1017.1 |
| 20260509011526 | 58 | 0.0 | 0.0 | 0.00 | 0.43 | 0.00 | 99 | 1017.1 | |
| 20260509010524 | 58 | 0.0 | 0.0 | 0.00 | 0.43 | 0.00 | 99 | 1017.1 | |
| 20260509005525 | 58 | 0.0 | 0.0 | 0.00 | 0.43 | 0.00 | 99 | 1017.2 | |
| 20260509004526 | 58 | 0.0 | 0.0 | 0.00 | 0.43 | 0.00 | 99 | 1017.2 | |
| 20260509003525 | 58 | 339 | 0.0 | 1.0 | 0.00 | 0.43 | 0.00 | 99 | 1017.2 |
| 20260509002605 | 58 | 339 | 1.0 | 1.0 | 0.00 | 0.43 | 0.00 | 99 | 1017.2 |
| 20260509001524 | 57 | 342 | 0.0 | 1.0 | 0.00 | 0.43 | 0.00 | 99 | 1017.3 |
| 20260509000525 | 57 | 0.0 | 0.0 | 0.00 | 0.43 | 0.00 | 98 | 1017.4 |